www.pogodaiklimat.ru

Погода и климат >> Архив погоды >> Финляндия >> Ниинисало


ПОГОДА в Ниинисало

  • Прогноз погоды в Ниинисало
  • Монитор погоды в Ниинисало

АРХИВ ПОГОДЫ в Ниинисало

Время (UTC), дата Ветер
(напр.,м/с)
 
Видим.   Явления Облачность Т
(С)
Тd
(С)
f
(%)
Тe
(С)
Тes
(С)
Комфортность P
(гПа)
Po
(гПа)
Тmin
(С)
Tmax
(С)
R
(мм)
R24
(мм)
S
(см)
22 11.06 С 5-7
{9}
50 км ясно +7.6 -0.7 56 +4 +4 1027.6 1012.2
23 11.06 С 4-9
{9}
50 км 9/0
[]
+6.6 -1.5 56 +3 +3 1027.8 1012.3
00 12.06 СВ 4-7
{8}
50 км 9/0
[]
+5.7 -1.5 60 +2 +2 1027.8 1012.2
01 12.06 СВ 3 50 км 6/0
[]
+5.1 -1.0 65 +2 +2 1028.0 1012.4
02 12.06 СВ 4 50 км 6/0
[]
+5.1 -0.4 68 +1 +1 1027.8 1012.2
03 12.06 СВ 3-6
{8}
50 км 6/0
[]
+5.6 +0.6 70 +3 +3 1028.0 1012.4
04 12.06 СВ 4 50 км 9/0
[]
+6.4 +1.0 68 +3 +4 1028.4 1012.9
05 12.06 СВ 4 45 км 1/0
[]
+8.0 +1.3 63 +5 +7 1028.1 1012.7
06 12.06 СВ 5-9
{9}
45 км 1/0
[]
+9.6 +1.5 57 +7 +10 1027.9 1012.6 +5.0 +15.1
07 12.06 СВ 4 45 км 1/0
[]
+10.5 +1.9 55 +8 +14 1027.9 1012.6
08 12.06 СВ 4 45 км 1/0
[]
+11.2 +1.9 53 +9 +16 1028.2 1012.9
09 12.06 В 4-6
{9}
45 км 1/0
[]
+12.5 +1.0 45 +11 +19 1028.3 1013.0
10 12.06 В 4 40 км 1/0
[]
+14.0 +1.5 43 +13 +22 1028.0 1012.8
11 12.06 СВ 3 40 км 1/0
[]
+14.8 +2.1 42 +14 +25 опасность
простуды
1027.2 1012.1
12 12.06 В 4-7
{8}
30 км ясно +16.3 +2.6 40 +16 +24 1026.5 1011.5
13 12.06 В 3-7
{8}
50 км 4/4
[]
+16.6 +2.4 38 +16 +22 1026.4 1011.4
14 12.06 В 4 45 км 9/9
[]
+16.9 +3.3 40 +16 +17 1026.0 1011.0
15 12.06 В 4-7
{9}
50 км ясно +17.0 +3.7 41 +17 +21 1024.8 1009.9
16 12.06 В 4-6
{8}
50 км ясно +16.1 +3.4 43 +15 +18 1024.8 1009.8
17 12.06 В 4-6
{7}
50 км ясно +16.4 +3.2 41 +16 +17 1024.7 1009.7
18 12.06 В 3-6
{7}
50 км 1/0
[]
+15.3 +3.9 46 +15 +15 1024.8 1009.8 +9.4 +17.1
19 12.06 В 2 50 км 1/0
[]
+14.5 +4.6 51 +14 +15 1024.7 1009.6
20 12.06 В 2-4
{5}
50 км 6/0
[]
+13.7 +4.5 54 +13 +13 1024.6 1009.5
21 12.06 В 3-6
{6}
50 км 9/4
[]
+13.1 +4.6 56 +12 +12 1024.5 1009.4
22 12.06 В 3 50 км 9/9
[]
+12.7 +4.5 57 +12 +12 1024.8 1009.6
23 12.06 В 3 50 км 9/9
[]
+12.5 +4.4 58 +11 +11 1024.3 1009.2
00 13.06 В 3-7
{7}
50 км сильн. дождь {морось} 9/9
[]
+11.9 +5.1 63 +10 +10 1024.4 1009.2 0.1
01 13.06 В 3-5
{6}
40 км сильн. дождь 9/4 1500 м
[]
+11.1 +5.8 70 +9 +9 1024.1 1008.9 0.2
02 13.06 В 3-5
{6}
50 км в посл. час морось 9/0 2000 м
[]
+10.7 +5.8 72 +9 +9 1023.7 1008.5
03 13.06 В 3-6
{6}
40 км в посл. час морось {ливн. осадки, дождь} 9/9
[]
+11.0 +4.6 65 +9 +9 1022.3 1007.1
04 13.06 В 4 50 км 9/9
[]
+11.0 +3.6 60 +9 +9 1021.6 1006.4
05 13.06 В 4-7
{10}
50 км сильн. ливневой дождь 9/9
[]
+10.9 +3.6 61 +9 +9 1021.4 1006.2
06 13.06 В 4-9
{10}
50 км в посл. час морось {ливн. осадки, дождь} 9/9
[]
+11.4 +4.0 60 +9 +10 1020.3 1005.2 +10.5 +15.3 0.3
07 13.06 В 4-9
{9}
40 км 6/6
[]
+13.5 +5.3 58 +12 +14 1020.4 1005.3
08 13.06 В 5 50 км 9/9 1500 м
[]
+13.1 +5.6 60 +11 +12 1020.1 1005.0
09 13.06 В 5-10
{10}
45 км {метель} 6/4 1000 м
[]
+14.7 +6.5 58 +13 +17 1019.6 1004.6
10 13.06 В 6-11
{12}
35 км 1/0 1000 м
[]
+16.4 +7.2 54 +15 +19 1019.1 1004.2
11 13.06 В 6 35 км 4/4 1000 м
[]
+17.8 +7.7 52 +17 +20 1018.4 1003.6
12 13.06 В 5-10
{11}
35 км {метель} 6/6 1000 м
[]
+17.4 +8.6 56 +17 +19 1018.4 1003.5
13 13.06 В 6 45 км 9/9 600 м
[]
+17.7 +9.2 57 +17 +17 1017.7 1002.9
14 13.06 В 5-10
{13}
45 км 4/1 1000 м
[]
+18.9 +10.6 59 +19 +23 1017.1 1002.4
15 13.06 В 5-9
{10}
50 км 9/9 600 м
[]
+18.2 +10.5 61 +18 +18 1017.0 1002.2
16 13.06 ЮВ 5 40 км 6/6 600 м
[]
+18.3 +10.9 62 +18 +19 1016.6 1001.9
17 13.06 В 3-6
{9}
50 км 9/0 600 м
[]
+17.7 +11.0 65 +18 +18 1016.8 1002.1
18 13.06 В 3-6
{7}
50 км 9/9 600 м
[]
+17.2 +10.4 64 +17 +17 1017.0 1002.2 +11.4 +19.0
19 13.06 В 3 50 км 9/4 600 м
[]
+16.6 +10.2 66 +16 +16 1016.8 1002.0
20 13.06 В 3 50 км 9/9 2000 м
[]
+16.0 +10.0 68 +16 +16 1016.7 1001.8
21 13.06 В 3-5
{7}
50 км 9/4 600 м
[]
+15.2 +9.7 70 +15 +15 1016.7 1001.8
22 13.06 СВ 3 50 км 10/10 600 м
[]
+15.1 +9.1 67 +14 +14 1016.5 1001.6
23 13.06 СВ 3-4
{5}
50 км 10/10 600 м
[]
+15.1 +9.2 68 +14 +14 1016.2 1001.3
00 14.06 СВ 2-4
{6}
50 км 9/9 300 м
[]
+15.0 +9.0 67 +15 +15 1016.0 1001.1
01 14.06 СВ 3 50 км 10/6 300 м
[]
+14.7 +9.0 69 +14 +14 1015.5 1000.6
02 14.06 В 4 50 км 9/1 300 м
[]
+14.6 +8.8 68 +13 +14 1015.3 1000.4
03 14.06 В 3-6
{6}
50 км 9/9 300 м
[]
+14.5 +8.8 69 +14 +14 1015.4 1000.4
04 14.06 СВ 2 50 км 10/10 300 м
[]
+14.3 +8.9 70 +14 +14 1015.3 1000.3
05 14.06 В 3-5
{5}
50 км 9/9 600 м
[]
+14.1 +9.0 71 +13 +13 1015.4 1000.4
06 14.06 В 3-6
{6}
50 км 9/9 300 м
[]
+14.2 +9.1 71 +13 +14 1015.7 1000.7 +14.0 +17.2
07 14.06 В 2-5
{6}
45 км 9/9 300 м
[]
+14.3 +9.2 71 +14 +14 1015.5 1000.6
08 14.06 В 4 35 км 10/10 300 м
[]
+15.0 +9.8 71 +14 +14 1015.5 1000.6
09 14.06 СВ 3-5
{7}
40 км 9/9 300 м
[]
+16.1 +10.6 70 +16 +17 1015.5 1000.6
10 14.06 В 3 35 км 10/10 300 м
[]
+16.5 +11.2 71 +16 +16 1015.7 1000.8
11 14.06 В 3 30 км 10/10 300 м
[]
+16.4 +11.4 72 +16 +16 1015.8 1001.0
12 14.06 ЮВ 2-4
{5}
26 км 10/10 300 м
[]
+16.5 +12.4 77 +17 +17 1015.6 1000.8
13 14.06 ЮВ 2-4
{5}
23 км 10/10 300 м
[]
+16.1 +12.8 81 +16 +16 1015.7 1000.9
14 14.06 ЮВ 3 22 км 10/10 300 м
[]
+16.2 +13.0 81 +16 +16 1015.3 1000.5
15 14.06 Ю 1-4
{4}
17 км 10/10 300 м
[]
+16.2 +13.1 82 +17 +17 1014.9 1000.1
16 14.06 Ю 2 3200 м дымка 10/10 200 м
[]
+15.7 +14.2 91 +16 +16 1014.9 1000.0
17 14.06 ЮЗ 3 2900 м слаб. ливневой дождь 10/10 50 м
[]
+14.7 +13.9 95 +14 +14 1014.9 1000.0
18 14.06 ЮЗ 4-7
{8}
4100 м слаб. ливневой дождь 10/10 50 м
[]
+12.8 +12.1 96 +11 +11 1015.1 1000.1 +12.8 +16.9 0.2
19 14.06 ЮЗ 3 13 км 10/10 50 м
[]
+12.1 +11.5 96 +10 +10 1015.4 1000.3
20 14.06 ЮЗ 3 22 км 9/9 50 м
[]
+11.5 +10.8 95 +10 +10 1015.7 1000.7
21 14.06 ЮЗ 2-4
{5}
1600 м дымка {ливн. осадки} ?/? +10.7 +10.1 96 +9 +9 1016.1 1000.9
22 14.06 ЮЗ 3-6
{6}
600 м туман ?/? +10.3 +9.7 96 +8 +8 1016.1 1000.9
23 14.06 ЮЗ 3 700 м туман ?/? +10.4 +9.8 96 +8 +8 1016.0 1000.9
00 15.06 ЮЗ 4-7
{7}
700 м туман {ливн. осадки} ?/? +10.1 +9.5 96 +7 +7 1016.2 1001.0
01 15.06 ЮЗ 4 1900 м в посл. час туман ?/? +10.0 +9.4 96 +7 +7 1016.7 1001.5
02 15.06 З 4-7
{7}
3000 м дымка ?/? +9.6 +9.0 96 +7 +7 1016.8 1001.6
03 15.06 З 4-7
{7}
6000 м дымка {туман} 9/9 <50 м
[]
+9.7 +9.2 97 +7 +7 1016.6 1001.5
04 15.06 З 3 9000 м дымка 10/10 <50 м
[]
+10.2 +9.6 96 +8 +8 1016.6 1001.4
05 15.06 З 3 5000 м дымка 10/10 <50 м
[]
+10.6 +10.0 96 +8 +8 1016.7 1001.6
06 15.06 З 3-5
{6}
4800 м дымка {туман} 9/9 <50 м
[]
+11.1 +10.6 97 +9 +10 1016.4 1001.3 +9.6 +12.8
07 15.06 З 3-4
{5}
11 км 10/10 <50 м
[]
+11.5 +10.8 95 +10 +10 1016.6 1001.5
08 15.06 З 2 18 км 10/10 50 м
[]
+12.0 +11.0 94 +11 +11 1016.8 1001.7
09 15.06 З 3-4
{5}
45 км {дымка} 9/9 100 м
[]
+12.8 +11.0 89 +11 +12 1016.9 1001.8
10 15.06 СЗ 1-3
{4}
45 км 9/9 300 м
[]
+13.9 +10.9 82 +14 +16 1017.2 1002.2
11 15.06 СЗ 2 50 км 10/10 300 м
[]
+14.7 +11.6 82 +14 +14 1017.3 1002.4
12 15.06 З 2-4
{4}
45 км {дымка} 10/10 300 м
[]
+15.2 +11.0 76 +15 +15 1017.2 1002.2
13 15.06 З 3 45 км 10/10 300 м
[]
+14.8 +11.2 79 +14 +14 1017.5 1002.5
14 15.06 З 2-4
{5}
45 км 9/9 600 м
[]
+16.1 +11.3 73 +16 +17 1017.2 1002.3
15 15.06 З 3-5
{5}
50 км 10/10 300 м
[]
+14.8 +11.3 80 +14 +14 1017.3 1002.3
16 15.06 С 3 35 км 9/9 300 м
[]
+15.6 +11.4 76 +15 +15 1017.0 1002.1
17 15.06 С 2 45 км 10/10 600 м
[]
+15.1 +11.3 78 +15 +15 1017.1 1002.2
18 15.06 С 2-3
{5}
50 км 1/1 600 м
[]
+15.5 +10.3 71 +15 +16 1016.7 1001.8 +11.1 +16.1
19 15.06 штиль 0 50 км ясно +14.6 +10.5 76 +14 +15 1016.5 1001.5
20 15.06 штиль 0 50 км ясно +12.9 +10.6 86 +12 +12 1016.4 1001.4
21 15.06 штиль 0 19 км ясно +10.7 +9.6 93 +10 +10 1016.7 1001.5
22 15.06 штиль 0 14 км ясно +9.7 +8.8 94 +9 +9 1016.8 1001.6
23 15.06 штиль 0 23 км 10/0 300 м
[]
+9.6 +9.1 97 +9 +9 1016.9 1001.7
00 16.06 штиль 0
{2}
16 км {дымка} 6/6 300 м
[]
+10.2 +9.6 96 +9 +9 1016.6 1001.5
01 16.06 штиль 0 5000 м дымка ясно +9.1 +8.3 95 +8 +8 1016.4 1001.2
02 16.06 штиль 0 18 км ясно +8.5 +7.7 95 +8 +8 1016.3 1001.0
03 16.06 штиль 0
{1}
45 км {дымка} 9/9 300 м
[]
+11.0 +10.4 96 +10 +10 1016.0 1000.9
04 16.06 В 1 30 км 9/9 300 м
[]
+11.8 +10.4 91 +12 +12 1015.9 1000.8
05 16.06 штиль 0-2
{3}
50 км 9/9 300 м
[]
+12.9 +11.1 89 +12 +13 1015.7 1000.7
06 16.06 штиль 0-3
{3}
45 км {дымка} 9/9 1000 м
[]
+14.8 +11.0 78 +15 +15 1015.5 1000.6 +8.4 +15.5
07 16.06 штиль 0-3
{3}
45 км 6/6 300 м
[]
+17.2 +12.0 71 +17 +24 1015.2 1000.4
08 16.06 Ю 2 40 км 4/4 600 м
[]
+18.6 +12.1 66 +20 +26 1015.0 1000.3
09 16.06 З 2-3
{4}
40 км 6/6 600 м
[]
+19.2 +11.6 61 +21 +26 комфорт 1014.4 999.8
10 16.06 ЮЗ 2 50 км 9/9 1000 м
[]
+18.9 +11.5 62 +20 +22 1014.4 999.7
11 16.06 Ю 1 35 км 9/9 1000 м
[]
+20.5 +12.3 59 +24 +25 комфорт 1014.0 999.4
12 16.06 ЮЗ 1-2
{4}
45 км 9/9 1000 м
[]
+21.0 +12.5 58 +25 +26 комфорт 1013.6 999.0
13 16.06 З 1-6
{6}
40 км 6/6 1000 м
[]
+21.9 +12.0 53 +24 +29 комфорт 1013.3 998.8
14 16.06 З 2-5
{5}
40 км 9/9 1000 м
[]
+23.0 +11.6 49 +25 +26 комфорт 1013.1 998.6
15 16.06 З 4-7
{7}
45 км 1/1 1000 м
[]
+22.4 +12.8 55 +25 +29 комфорт 1012.9 998.5
16 16.06 З 4-8
{8}
50 км ясно +21.9 +11.7 52 +24 +27 комфорт 1013.0 998.5
17 16.06 З 3 50 км ясно +20.6 +10.9 54 +23 +24 комфорт 1013.0 998.4
18 16.06 ЮЗ 2-4
{5}
50 км ясно +19.4 +10.4 56 +21 +22 комфорт 1012.8 998.2 +14.8 +23.6
19 16.06 З 2 50 км ясно +17.8 +10.0 60 +18 +19 1012.8 998.1
20 16.06 ЮЗ 1-3
{3}
50 км ясно +15.2 +9.7 70 +16 +16 1013.2 998.3
21 16.06 З 1-2
{3}
50 км ясно +12.6 +9.3 80 +13 +13 1013.3 998.3
22 16.06 штиль 0 50 км ясно +11.1 +9.1 87 +10 +10 1013.3 998.2
23 16.06 ЮЗ 1 50 км ясно +10.2 +8.7 90 +10 +10 1013.3 998.1
00 17.06 ЮВ 1-2
{3}
50 км ясно +10.3 +9.2 93 +10 +10 1013.0 997.9
01 17.06 ЮВ 1 50 км ясно +9.6 +8.5 93 +9 +9 1012.6 997.4
02 17.06 ЮВ 2-2
{3}
50 км ясно +9.4 +8.4 93 +8 +8 1012.3 997.1
03 17.06 Ю 3-4
{4}
50 км ясно +13.1 +10.2 83 +12 +12 1011.9 997.0
04 17.06 Ю 3 45 км ясно +14.7 +10.4 75 +14 +15 1011.8 996.9
05 17.06 Ю 2-3
{4}
40 км 1/0 2000 м
[]
+16.0 +11.3 74 +16 +19 1011.6 996.8
06 17.06 Ю 2-3
{3}
40 км 4/4 2000 м
[]
+18.7 +12.3 66 +20 +24 1011.3 996.7 +9.3 +19.4
07 17.06 Ю 2 40 км 9/9 2000 м
[]
+19.8 +13.2 66 +22 +23 комфорт 1011.2 996.6
08 17.06 Ю 1 40 км ясно +21.6 +14.4 64 +25 +37 комфорт 1011.1 996.6
09 17.06 ЮЗ 4-6
{7}
40 км 1/0
[]
+24.3 +13.6 51 +27 +35 жарко 1010.8 996.5
10 17.06 ЮЗ 5 30 км 1/1
[]
+24.2 +13.2 50 +26 +33 жарко 1010.7 996.3
11 17.06 ЮЗ 5 35 км 4/4
[]
+24.2 +13.3 51 +26 +31 жарко 1010.8 996.4
12 17.06 ЮЗ 5-10
{10}
40 км 4/4
[]
+23.9 +14.5 56 +27 +31 жарко 1010.9 996.5
13 17.06 ЮЗ 6 35 км 1/1
[]
+22.9 +13.3 55 +26 +30 жарко 1010.9 996.4
14 17.06 ЮЗ 5-10
{11}
45 км 1/0
[]
+19.8 +11.1 57 +21 +25 комфорт 1011.1 996.5
15 17.06 ЮЗ 5-8
{11}
50 км 6/0
[]
+21.3 +10.9 51 +23 +25 комфорт 1010.7 996.2
16 17.06 ЮЗ 6 50 км ясно +20.4 +9.6 50 +22 +23 комфорт 1010.5 996.0
17 17.06 ЮЗ 3 50 км ясно +20.7 +9.6 49 +23 +24 комфорт 1010.5 995.9
18 17.06 ЮЗ 4-9
{9}
50 км ясно +19.7 +7.7 46 +21 +21 комфорт 1010.5 996.0 +18.7 +25.4
19 17.06 ЮЗ 3-5
{7}
50 км ясно +18.7 +7.5 48 +19 +19 1010.5 995.8
20 17.06 Ю 2-5
{5}
50 км ясно +16.8 +7.4 54 +17 +17 1010.3 995.6
21 17.06 Ю 3-4
{4}
50 км ясно +15.0 +7.1 59 +14 +14 1010.2 995.4
22 17.06 Ю 2 50 км ясно +14.1 +7.6 65 +14 +14 1010.3 995.4
23 17.06 ЮЗ 2 50 км ясно +13.3 +8.5 73 +13 +13 1010.5 995.5
00 18.06 ЮЗ 2-3
{4}
50 км 1/1 2000 м
[]
+12.3 +9.1 81 +11 +11 1010.8 995.8
01 18.06 ЮЗ 2-3
{3}
50 км 1/0 2000 м
[]
+11.6 +9.4 86 +10 +10 1011.1 996.1
02 18.06 ЮЗ 3 45 км ясно +11.3 +9.5 89 +9 +9 1011.5 996.5
03 18.06 ЮЗ 2-4
{4}
45 км ясно +12.9 +10.5 85 +12 +13 1011.7 996.8
04 18.06 ЮЗ 2 40 км ясно +14.5 +10.9 79 +14 +16 1011.8 997.0
05 18.06 ЮЗ 2 40 км ясно +16.6 +11.2 70 +17 +21 1011.8 997.0
06 18.06 Ю 4-6
{6}
35 км ясно +18.3 +11.2 63 +18 +22 1012.1 997.4 +11.3 +19.7
07 18.06 Ю 4 30 км ясно +19.2 +10.8 58 +20 +26 1012.2 997.6
08 18.06 ЮЗ 4-6
{8}
35 км ясно +20.3 +11.3 56 +22 +29 комфорт 1012.4 997.8
09 18.06 Ю 5-8
{9}
40 км ясно +21.0 +10.8 52 +23 +30 комфорт 1012.6 998.1
10 18.06 ЮЗ 6 30 км ясно +21.8 +11.0 50 +24 +29 комфорт 1012.8 998.3
11 18.06 ЮЗ 7-10
{12}
35 км ясно +21.2 +9.7 48 +23 +26 комфорт 1013.1 998.5
12 18.06 ЮЗ 6-11
{12}
40 км ясно +21.0 +9.9 49 +23 +28 комфорт 1013.5 999.0
13 18.06 ЮЗ 6 35 км ясно +20.6 +9.8 50 +22 +26 комфорт 1013.7 999.2
14 18.06 ЮЗ 5 50 км ясно +20.9 +9.7 49 +23 +27 комфорт 1013.7 999.1
15 18.06 ЮЗ 4-9
{11}
45 км ясно +21.7 +9.7 46 +23 +27 комфорт 1013.4 998.9
16 18.06 ЮЗ 5-10
{11}
45 км ясно +21.3 +9.3 46 +23 +25 комфорт 1013.2 998.6
17 18.06 ЮЗ 5-9
{11}
50 км ясно +21.2 +9.2 46 +22 +23 комфорт 1013.0 998.4
18 18.06 ЮЗ 3-5
{8}
45 км ясно +20.5 +9.4 49 +22 +23 комфорт 1012.5 997.9 +11.3 +19.7
19 18.06 ЮЗ 2 50 км ясно +19.1 +9.7 54 +20 +21 1012.4 997.8
20 18.06 ЮЗ 3 50 км ясно +17.6 +9.7 60 +18 +18 1012.7 997.9
21 18.06 ЮЗ 4-7
{7}
50 км 4/4
[]
+16.9 +10.1 64 +16 +16 1012.5 997.7
22 18.06 Ю 3-6
{6}
50 км ясно +15.9 +10.3 69 +15 +15 1012.4 997.6

 

Местоположение метеостанции Ниинисало (Финляндия): широта 61.84 долгота 22.46 высота над уровнем моря 122 м.

В архиве по умолчанию представлена погода в Ниинисало за последнюю неделю. Архивные данные за месяц целиком и за предыдущие месяцы, начиная с января 2011 года, Вы можете получить, выбрав интересующий диапазон дат из раскрывающегося списка и нажав кнопку "Ввод!".


*Определитесь, кто Вы:
робот инопланетянин человек

Внимание! Время в таблицах - всемирное. Для получения местного времени необходимо прибавить поправку, которая равна 1 ч.

Смотрите также архив погоды в соседних городах и на ближайших метеорологических станциях:

Погода в Ниинисало (Финляндия) (1 км)
Погода в Карвиа Алккиа (Финляндия) (41 км)
Погода в Пори ж/д вокзале (Финляндия) (54 км)
Погода в Тахколуото (Финляндия) (61 км)
Погода в Каухайоки (Финляндия) (65 км)
Погода в Кокемяки (Финляндия) (66 км)
Погода на Острове Сиилинкари (Финляндия) (77 км)
Погода в Аэропорту Пирккала (Финляндия) (77 км)
Погода в Виррат Айяннева (Финляндия) (78 км)
Погода в Криистийнанкаупунки (Финляндия) (78 км)

Пояснения к столбцам:

Ветер - указаны скорость ветра в м/с - средняя за 10 мин, порывы в срок и между сроками (в фигурных скобках) и направление, откуда дует ветер: С - северный, СВ - северо-восточный, В - восточный, ЮВ - юго-восточный, Ю - южный, ЮЗ - юго-западный, З - западный, СЗ - северо-западный.
Видимость - горизонтальная дальность видимости в метрах или километрах. При видимости от 1 до 10 км при отсутствии осадков обычно наблюдается дымка, при ухудшении видимости до 1 км и менее - туман. В сухую погоду видимость может ухудшаться дымом, пылью или мглою.
Явления - указаны атмосферные явления, наблюдавшиеся в срок или в последний час перед сроком; фигурными скобками обозначены явления, наблюдавшиеся между сроками (за 1-3 часа до срока); квадратными скобками обозначены град или гололедные отложения с указанием их диаметра в мм.
Облачность - указаны через наклонную черту общая и нижняя облачность в баллах и высота нижней границы облаков в метрах; квадратными скобками обозначены формы облаков: Ci - перистые, Cs - перисто-слоистые, Cc - перисто-кучевые, Ac - высококучевые, As - высокослоистые, Sc - слоисто-кучевые, Ns - слоисто-дождевые, Cu - кучевые, Cb - кучево-дождевые. Подробнее классификацию облаков см. в Атласе облаков (PDF).
T - Температура воздуха - температура, измеренная на высоте 2 м над землей.
Td - Температура точки росы - температура, при понижении до которой содержащийся в воздухе водяной пар достигнет насыщения.
f - Относительная влажность воздуха - влажноcть воздуха, измеренная на высоте 2 м над землей.
Te - Эффективная температура - температура, которую ощущает одетый по сезону человек в тени. Характеристика душности погоды. При расчете учитывается влияние влажности воздуха и скорости ветра на теплоощущения человека.
Tes - Эффективная температура на солнце - температура, которую ощущает человек, с поправкой на солнечный нагрев. Характеристика знойности погоды. Зависит от высоты солнца над горизонтом, облачности и скорости ветра. Ночью, в пасмурную погоду, а также при ветре 12 м/с и более поправка равна нулю.
P - Атмосферное давление - приведенное к уровню моря атмосферное давление.
Po - Атмосферное давление - измеренное на уровне метеостанции атмосферное давление.
Tmin - Минимальная температура - минимум температуры воздуха на высоте 2 м над землей.
Tmax - Максимальная температура - максимум температуры воздуха на высоте 2 м над землей.
R - Количество осадков - Количество выпавших осадков за период времени, мм. При наведении курсора мыши на число - период времени, за который выпало указанное количество осадков.
R24 - Количество осадков - Количество выпавших осадков за 24 часа, мм.
S - Снежный покров - Высота снежного покрова, см. При наведении курсора мыши на число - состояние снежного покрова и степень покрытия местности в баллах.